This demonstration page uses our WeatherBlox Daily Observations layout. Learn more.

Left ArrowRight Arrow

39.12711, -84.51439

Hourly Observations for August 9, 2016

Temp ( °F °C ) Dew Point ( °F °C ) Humidity (%) Winds ( mph kmh ) Pressure ( in mb ) Visibility ( mi km ) Precip ( " mm )
12:53 am 00:53 Clear 70 21.1 69 20.6 97 97 NE 5 7 29.98 1015 10 16 N/A
1:53 am 01:53 Clear 69 20.6 68 20 96 96 NNE 3 6 29.98 1015 10 16 N/A
2:53 am 02:53 Clear 68 20 68 20 100 100 N N/A 29.97 1015 7 11 N/A
3:53 am 03:53 Clear with Mist and Fog 68 20 68 20 100 100 N N/A 29.98 1015 6 10 N/A
4:53 am 04:53 Clear with Mist and Fog 68 20 68 20 100 100 N N/A 29.97 1015 6 10 N/A
5:53 am 05:53 Clear with Mist and Fog 68 20 68 20 100 100 N N/A 29.98 1015 5 8 N/A
6:53 am 06:53 Partly Cloudy with Mist and Fog 69 20.6 69 20.6 100 100 N N/A 30.00 1016 6 10 N/A
7:53 am 07:53 Sunny with Mist and Fog 71 21.7 70 21.1 96 96 N N/A 30.01 1016 6 10 N/A
8:53 am 08:53 Sunny 74 23.3 71 21.7 91 91 NNE 3 6 30.01 1016 8 13 N/A
9:53 am 09:53 Cloudy 76 24.4 72 22.2 88 88 N N/A 30.02 1017 9 14 N/A
10:53 am 10:53 Partly Cloudy 80 26.7 75 23.9 85 85 VRB 3 6 30.01 1016 10 16 N/A
11:53 am 11:53 Mostly Cloudy 82 27.8 75 23.9 79 79 S 3 6 30.01 1016 10 16 N/A
12:53 pm 12:53 Mostly Cloudy 85 29.4 76 24.4 75 75 N N/A 30.00 1016 10 16 N/A
1:53 pm 13:53 Mostly Cloudy with Light Rain 87 30.6 77 25 72 72 SW 5 7 29.98 1015 10 16 N/A
2:14 pm 14:14 Mostly Cloudy with Light Rain 82 28 77 25 84 84 S 12 19 29.97 1015 5 8 N/A
2:53 pm 14:53 Partly Cloudy with Nearby Thunderstorms 83 28.3 77 25 82 82 WNW 5 7 29.98 1015 5 8 0.05 1.27
3:07 pm 15:07 Mostly Cloudy with Heavy Rain 81 27.2 78 25.6 91 91 WSW 3 6 29.97 1015 2 3 0.04 1.02
3:15 pm 15:15 Mostly Cloudy with Light Rain 80 26.7 79 26.1 97 97 S 9 15 29.97 1015 3 5 0.05 1.27
3:44 pm 15:44 Sunny with Nearby Thunderstorms 81 27 79 26 94 94 N N/A 29.97 1015 10 16 N/A
3:53 pm 15:53 Sunny with Nearby Thunderstorms 82 27.8 77 25 85 85 N N/A 29.98 1015 10 16 0.05 1.27
4:01 pm 16:01 Mostly Cloudy 82 27.8 77 25 85 85 N N/A 29.97 1015 10 16 N/A
4:53 pm 16:53 Partly Cloudy 84 28.9 76 24.4 77 77 N N/A 29.97 1015 10 16 N/A
5:21 pm 17:21 Mostly Cloudy with Nearby Thunderstorms 83 28.3 78 25.6 85 85 ESE 3 6 29.97 1015 10 16 N/A
5:53 pm 17:53 Partly Cloudy with Thunderstorms 80 26.7 76 24.4 87 87 SSE 9 15 29.98 1015 9 14 N/A
6:53 pm 18:53 Sunny with Thunderstorms 80 26.7 76 24.4 87 87 N N/A 29.98 1015 10 16 N/A
7:00 pm 19:00 Mostly Sunny 81 27 75 24 84 84 N N/A 29.97 1015 10 16 N/A
7:53 pm 19:53 Partly Cloudy 78 25.6 75 23.9 90 90 S 10 17 30.00 1016 10 16 N/A
8:53 pm 20:53 Mostly Cloudy 78 25.6 75 23.9 90 90 N N/A 30.01 1016 10 16 N/A
9:53 pm 21:53 Mostly Clear 75 23.9 74 23.3 96 96 SSW 3 6 30.02 1017 10 16 N/A
10:53 pm 22:53 Clear 74 23.3 74 23.3 100 100 S 3 6 30.03 1017 10 16 N/A
11:53 pm 23:53 Clear 75 23.9 74 23.3 96 96 N N/A 30.04 1017 10 16 N/A

Powered by AerisWeather